| time (UTC) | temp F | wind direction | speed knots | gust knots | rain 1hr in | rain 24hr in | rain mn in | humidity % | barometer mb |
| 20260507000608 | 48 | 336 | 2.6 | 8.7 | 0.00 | 0.47 | 0.47 | 96 | 1007.8 |
| 20260507000108 | 49 | 51 | 2.6 | 7.0 | 0.00 | 0.47 | 0.47 | 96 | 1007.6 |
| 20260506235614 | 0 | 147 | 221.6 | 0.0 | 0.00 | 0.00 | 0.00 | ||
| 20260506235607 | 49 | 355 | 2.6 | 8.7 | 0.00 | 0.47 | 0.47 | 96 | 1007.4 |
| 20260506235108 | 49 | 355 | 2.6 | 7.0 | 0.00 | 0.47 | 0.47 | 96 | 1007.5 |
| 20260506234607 | 50 | 329 | 2.6 | 7.8 | 0.00 | 0.47 | 0.47 | 95 | 1007.5 |
| 20260506234111 | 0 | 147 | 221.6 | 0.0 | 0.00 | 0.00 | 0.00 | ||
| 20260506234107 | 50 | 342 | 2.6 | 5.2 | 0.00 | 0.47 | 0.47 | 95 | 1007.4 |
| 20260506233606 | 51 | 335 | 2.6 | 5.2 | 0.00 | 0.47 | 0.47 | 95 | 1007.5 |
| 20260506233106 | 52 | 355 | 3.5 | 7.8 | 0.00 | 0.47 | 0.47 | 95 | 1007.3 |
| 20260506232606 | 54 | 32 | 2.6 | 13.0 | 0.00 | 0.47 | 0.47 | 95 | 1007.0 |
| 20260506232105 | 56 | 49 | 1.7 | 7.8 | 0.00 | 0.47 | 0.47 | 96 | 1006.9 |
| 20260506231605 | 57 | 247 | 1.7 | 4.3 | 0.00 | 0.47 | 0.47 | 97 | 1006.6 |
| 20260506231110 | 0 | 147 | 221.6 | 0.0 | 0.00 | 0.00 | 0.00 | ||
| 20260506231105 | 57 | 272 | 1.7 | 3.5 | 0.00 | 0.47 | 0.47 | 98 | 1006.5 |
| 20260506230604 | 57 | 267 | 1.7 | 6.1 | 0.00 | 0.47 | 0.47 | 98 | 1006.4 |
| 20260506230104 | 57 | 236 | 1.7 | 5.2 | 0.00 | 0.47 | 0.47 | 98 | 1006.4 |
| 20260506225609 | 0 | 147 | 221.6 | 0.0 | 0.00 | 0.00 | 0.00 | ||
| 20260506225604 | 57 | 236 | 1.7 | 7.0 | 0.00 | 0.47 | 0.47 | 98 | 1006.5 |
| 20260506225105 | 58 | 251 | 2.6 | 6.1 | 0.00 | 0.47 | 0.47 | 98 | 1006.4 |
| 20260506224603 | 58 | 340 | 3.5 | 7.0 | 0.00 | 0.47 | 0.47 | 98 | 1006.3 |
| 20260506224108 | 0 | 147 | 221.6 | 0.0 | 0.00 | 0.00 | 0.00 | ||
| 20260506224103 | 58 | 245 | 2.6 | 5.2 | 0.00 | 0.47 | 0.47 | 98 | 1006.2 |
| 20260506223603 | 58 | 258 | 2.6 | 5.2 | 0.00 | 0.47 | 0.47 | 99 | 1006.3 |
| 20260506223102 | 58 | 263 | 2.6 | 4.3 | 0.00 | 0.47 | 0.47 | 99 | 1006.4 |
| 20260506222607 | 0 | 147 | 221.6 | 0.0 | 0.00 | 0.00 | 0.00 | ||
| 20260506222602 | 58 | 336 | 2.6 | 7.0 | 0.00 | 0.47 | 0.47 | 98 | 1006.3 |
| 20260506222102 | 58 | 239 | 1.7 | 6.1 | 0.00 | 0.47 | 0.47 | 99 | 1006.2 |
| 20260506221602 | 58 | 233 | 2.6 | 4.3 | 0.00 | 0.47 | 0.47 | 99 | 1006.2 |
| 20260506221106 | 0 | 147 | 221.6 | 0.0 | 0.00 | 0.00 | 0.00 | ||
| 20260506221101 | 58 | 244 | 3.5 | 5.2 | 0.00 | 0.47 | 0.47 | 99 | 1006.0 |
| 20260506220601 | 58 | 217 | 2.6 | 6.1 | 0.00 | 0.47 | 0.47 | 98 | 1005.9 |
| 20260506220101 | 58 | 226 | 2.6 | 6.1 | 0.00 | 0.47 | 0.47 | 98 | 1005.8 |
| 20260506215600 | 58 | 226 | 2.6 | 4.3 | 0.00 | 0.47 | 0.47 | 98 | 1005.8 |
| 20260506215100 | 58 | 202 | 2.6 | 5.2 | 0.00 | 0.47 | 0.47 | 98 | 1005.8 |
| 20260506214601 | 58 | 250 | 3.5 | 5.2 | 0.00 | 0.47 | 0.47 | 99 | 1005.7 |
| 20260506214105 | 0 | 147 | 221.6 | 0.0 | 0.00 | 0.00 | 0.00 | ||
| 20260506214059 | 58 | 219 | 2.6 | 6.1 | 0.00 | 0.47 | 0.47 | 98 | 1005.8 |
| 20260506213559 | 58 | 223 | 2.6 | 6.1 | 0.00 | 0.47 | 0.47 | 99 | 1005.7 |
| 20260506213059 | 58 | 284 | 2.6 | 6.1 | 0.00 | 0.47 | 0.47 | 99 | 1005.6 |
| 20260506212604 | 0 | 147 | 221.6 | 0.0 | 0.00 | 0.00 | 0.00 | ||
| 20260506212559 | 58 | 259 | 2.6 | 4.3 | 0.00 | 0.47 | 0.47 | 99 | 1005.5 |
| 20260506212058 | 57 | 232 | 2.6 | 6.1 | 0.00 | 0.47 | 0.47 | 99 | 1005.4 |
| 20260506211558 | 57 | 248 | 2.6 | 8.7 | 0.00 | 0.47 | 0.47 | 99 | 1005.4 |
| 20260506211103 | 0 | 147 | 221.6 | 0.0 | 0.00 | 0.00 | 0.00 | ||
| 20260506211058 | 58 | 200 | 2.6 | 6.1 | 0.00 | 0.47 | 0.47 | 99 | 1005.4 |
| 20260506210557 | 57 | 276 | 3.5 | 7.0 | 0.00 | 0.47 | 0.47 | 98 | 1005.3 |
| 20260506210057 | 57 | 261 | 3.5 | 7.8 | 0.00 | 0.47 | 0.47 | 98 | 1005.3 |
| 20260506205602 | 0 | 147 | 221.6 | 0.0 | 0.00 | 0.00 | 0.00 | ||
| 20260506205557 | 57 | 266 | 3.5 | 8.7 | 0.00 | 0.47 | 0.47 | 98 | 1005.4 |
| 20260506205057 | 57 | 249 | 3.5 | 10.4 | 0.00 | 0.47 | 0.47 | 98 | 1005.3 |
| 20260506204556 | 57 | 173 | 2.6 | 7.0 | 0.00 | 0.47 | 0.47 | 98 | 1005.2 |
| 20260506204101 | 0 | 147 | 221.6 | 0.0 | 0.00 | 0.00 | 0.00 | ||
| 20260506204056 | 57 | 192 | 2.6 | 6.1 | 0.00 | 0.47 | 0.47 | 99 | 1005.3 |
| 20260506203556 | 57 | 259 | 2.6 | 6.1 | 0.00 | 0.47 | 0.47 | 99 | 1005.3 |
| 20260506203056 | 57 | 199 | 2.6 | 7.0 | 0.01 | 0.47 | 0.47 | 99 | 1005.3 |
| 20260506202600 | 0 | 147 | 221.6 | 0.0 | 0.00 | 0.00 | 0.00 | ||
| 20260506202555 | 57 | 234 | 2.6 | 4.3 | 0.01 | 0.47 | 0.47 | 99 | 1005.2 |
| 20260506202055 | 57 | 222 | 3.5 | 6.1 | 0.01 | 0.47 | 0.47 | 99 | 1005.3 |
| 20260506201555 | 57 | 232 | 3.5 | 7.0 | 0.01 | 0.47 | 0.47 | 99 | 1005.1 |
| 20260506201059 | 0 | 147 | 221.6 | 0.0 | 0.00 | 0.00 | 0.00 | ||
| 20260506201054 | 57 | 209 | 3.5 | 11.3 | 0.01 | 0.47 | 0.47 | 98 | 1005.0 |
| 20260506200554 | 57 | 261 | 2.6 | 7.8 | 0.01 | 0.47 | 0.47 | 98 | 1005.2 |
| 20260506200054 | 57 | 259 | 3.5 | 7.8 | 0.01 | 0.47 | 0.47 | 98 | 1005.2 |
| 20260506195559 | 0 | 147 | 221.6 | 0.0 | 0.00 | 0.00 | 0.00 | ||
| 20260506195553 | 57 | 225 | 2.6 | 6.1 | 0.01 | 0.47 | 0.47 | 99 | 1005.3 |
| 20260506195054 | 57 | 267 | 2.6 | 7.0 | 0.01 | 0.47 | 0.47 | 98 | 1005.2 |
| 20260506194553 | 57 | 277 | 3.5 | 7.8 | 0.01 | 0.47 | 0.47 | 98 | 1005.2 |
| 20260506194057 | 0 | 147 | 221.6 | 0.0 | 0.00 | 0.00 | 0.00 | ||
| 20260506194052 | 57 | 290 | 3.5 | 8.7 | 0.01 | 0.47 | 0.47 | 98 | 1005.3 |
| 20260506193552 | 57 | 223 | 3.5 | 7.8 | 0.01 | 0.47 | 0.47 | 98 | 1005.2 |
| 20260506193052 | 57 | 257 | 3.5 | 7.8 | 0.01 | 0.46 | 0.46 | 98 | 1005.4 |
| 20260506192557 | 0 | 147 | 221.6 | 0.0 | 0.00 | 0.00 | 0.00 | ||
| 20260506192552 | 57 | 209 | 2.6 | 9.6 | 0.01 | 0.46 | 0.46 | 98 | 1005.3 |
| 20260506192051 | 57 | 238 | 2.6 | 4.3 | 0.02 | 0.46 | 0.46 | 98 | 1005.4 |
| 20260506191551 | 57 | 207 | 2.6 | 6.1 | 0.02 | 0.46 | 0.46 | 98 | 1005.5 |
| 20260506191057 | 0 | 147 | 221.6 | 0.0 | 0.00 | 0.00 | 0.00 | ||
| 20260506191051 | 57 | 212 | 3.5 | 6.1 | 0.03 | 0.46 | 0.46 | 98 | 1005.5 |
| 20260506190550 | 57 | 213 | 3.5 | 7.0 | 0.04 | 0.46 | 0.46 | 98 | 1005.4 |
| 20260506190050 | 57 | 235 | 3.5 | 7.8 | 0.05 | 0.46 | 0.46 | 98 | 1005.5 |
| 20260506185555 | 0 | 147 | 221.6 | 0.0 | 0.00 | 0.00 | 0.00 | ||
| 20260506185550 | 56 | 231 | 3.5 | 7.0 | 0.05 | 0.46 | 0.46 | 98 | 1005.5 |
| 20260506185050 | 56 | 218 | 3.5 | 8.7 | 0.06 | 0.46 | 0.46 | 98 | 1005.4 |
| 20260506184549 | 57 | 227 | 2.6 | 5.2 | 0.07 | 0.46 | 0.46 | 98 | 1005.5 |
| 20260506184054 | 0 | 147 | 221.6 | 0.0 | 0.00 | 0.00 | 0.00 | ||
| 20260506184049 | 56 | 166 | 3.5 | 6.1 | 0.08 | 0.46 | 0.46 | 98 | 1005.6 |
| 20260506183550 | 56 | 222 | 2.6 | 7.8 | 0.09 | 0.46 | 0.46 | 98 | 1005.7 |
| 20260506183048 | 56 | 278 | 3.5 | 7.8 | 0.09 | 0.45 | 0.45 | 98 | 1005.8 |
| 20260506182553 | 0 | 147 | 221.6 | 0.0 | 0.00 | 0.00 | 0.00 | ||
| 20260506182548 | 56 | 217 | 3.5 | 12.2 | 0.09 | 0.45 | 0.45 | 98 | 1005.7 |
| 20260506182048 | 56 | 244 | 3.5 | 10.4 | 0.09 | 0.44 | 0.44 | 98 | 1005.7 |
| 20260506181548 | 56 | 228 | 3.5 | 10.4 | 0.09 | 0.44 | 0.44 | 98 | 1005.8 |
| 20260506181052 | 0 | 147 | 221.6 | 0.0 | 0.00 | 0.00 | 0.00 | ||
| 20260506181047 | 56 | 187 | 3.5 | 6.1 | 0.09 | 0.43 | 0.43 | 98 | 1005.8 |
| 20260506180547 | 56 | 253 | 3.5 | 7.8 | 0.08 | 0.42 | 0.42 | 98 | 1005.9 |
| 20260506180047 | 56 | 197 | 2.6 | 7.8 | 0.08 | 0.41 | 0.41 | 98 | 1005.9 |
| 20260506175552 | 0 | 147 | 221.6 | 0.0 | 0.00 | 0.00 | 0.00 | ||
| 20260506175546 | 56 | 213 | 1.7 | 4.3 | 0.09 | 0.41 | 0.41 | 98 | 1005.9 |
| 20260506175046 | 56 | 227 | 1.7 | 5.2 | 0.09 | 0.40 | 0.40 | 98 | 1005.8 |
| 20260506174546 | 56 | 272 | 1.7 | 6.1 | 0.08 | 0.39 | 0.39 | 98 | 1005.9 |
| 20260506174050 | 0 | 147 | 221.6 | 0.0 | 0.00 | 0.00 | 0.00 | ||
| 20260506174046 | 56 | 239 | 2.6 | 4.3 | 0.08 | 0.38 | 0.38 | 98 | 1005.8 |
| 20260506173545 | 56 | 193 | 3.5 | 6.1 | 0.08 | 0.37 | 0.37 | 98 | 1005.8 |
| 20260506173045 | 56 | 221 | 2.6 | 7.8 | 0.08 | 0.36 | 0.36 | 98 | 1005.9 |
| 20260506172545 | 56 | 191 | 3.5 | 7.0 | 0.08 | 0.36 | 0.36 | 98 | 1005.9 |
| 20260506172044 | 56 | 87 | 3.5 | 8.7 | 0.07 | 0.35 | 0.35 | 98 | 1006.0 |
| 20260506171544 | 56 | 167 | 3.5 | 7.8 | 0.07 | 0.35 | 0.35 | 98 | 1005.9 |
| 20260506171049 | 0 | 147 | 221.6 | 0.0 | 0.00 | 0.00 | 0.00 | ||
| 20260506171044 | 56 | 229 | 3.5 | 6.1 | 0.06 | 0.34 | 0.34 | 98 | 1006.0 |
| 20260506170544 | 56 | 186 | 4.3 | 8.7 | 0.06 | 0.34 | 0.34 | 98 | 1006.1 |
| 20260506170044 | 56 | 177 | 4.3 | 8.7 | 0.06 | 0.33 | 0.33 | 98 | 1005.9 |
| 20260506165548 | 0 | 147 | 221.6 | 0.0 | 0.00 | 0.00 | 0.00 | ||
| 20260506165543 | 56 | 213 | 3.5 | 7.8 | 0.06 | 0.32 | 0.32 | 98 | 1005.9 |
| 20260506165043 | 56 | 152 | 2.6 | 5.2 | 0.06 | 0.31 | 0.31 | 98 | 1005.8 |
| 20260506164542 | 56 | 229 | 3.5 | 6.1 | 0.07 | 0.31 | 0.31 | 98 | 1005.8 |
| 20260506164047 | 0 | 147 | 221.6 | 0.0 | 0.00 | 0.00 | 0.00 | ||
| 20260506164042 | 56 | 221 | 3.5 | 7.0 | 0.07 | 0.30 | 0.30 | 98 | 1005.9 |
| 20260506163542 | 56 | 200 | 3.5 | 8.7 | 0.07 | 0.29 | 0.29 | 98 | 1006.1 |
| 20260506163041 | 56 | 173 | 3.5 | 7.0 | 0.08 | 0.28 | 0.28 | 98 | 1006.0 |
| 20260506162546 | 0 | 147 | 221.6 | 0.0 | 0.00 | 0.00 | 0.00 | ||
| 20260506162541 | 56 | 215 | 3.5 | 8.7 | 0.10 | 0.28 | 0.28 | 98 | 1006.1 |
| 20260506162041 | 56 | 229 | 3.5 | 8.7 | 0.11 | 0.28 | 0.28 | 98 | 1006.0 |
| 20260506161541 | 56 | 289 | 3.5 | 11.3 | 0.12 | 0.28 | 0.28 | 98 | 1006.0 |
| 20260506161045 | 0 | 147 | 221.6 | 0.0 | 0.00 | 0.00 | 0.00 | ||
| 20260506161040 | 56 | 221 | 3.5 | 7.0 | 0.13 | 0.28 | 0.28 | 98 | 1006.0 |
| 20260506160540 | 56 | 199 | 3.5 | 7.8 | 0.13 | 0.28 | 0.28 | 98 | 1006.0 |
| 20260506160040 | 56 | 238 | 3.5 | 6.1 | 0.13 | 0.27 | 0.27 | 98 | 1005.9 |
| 20260506155544 | 0 | 147 | 221.6 | 0.0 | 0.00 | 0.00 | 0.00 | ||
| 20260506155539 | 56 | 188 | 3.5 | 7.8 | 0.13 | 0.26 | 0.26 | 97 | 1006.0 |
| 20260506155039 | 56 | 251 | 3.5 | 8.7 | 0.12 | 0.25 | 0.25 | 97 | 1006.0 |
| 20260506154539 | 56 | 189 | 3.5 | 7.0 | 0.12 | 0.24 | 0.24 | 97 | 1006.0 |
| 20260506154043 | 0 | 147 | 221.6 | 0.0 | 0.00 | 0.00 | 0.00 | ||
| 20260506154039 | 56 | 231 | 4.3 | 12.2 | 0.11 | 0.23 | 0.23 | 97 | 1006.2 |
| 20260506153538 | 56 | 147 | 4.3 | 9.6 | 0.11 | 0.22 | 0.22 | 97 | 1006.1 |
| 20260506153038 | 56 | 205 | 4.3 | 12.2 | 0.10 | 0.20 | 0.20 | 97 | 1006.2 |
| 20260506152543 | 0 | 147 | 221.6 | 0.0 | 0.00 | 0.00 | 0.00 | ||
| 20260506152538 | 56 | 223 | 3.5 | 8.7 | 0.08 | 0.18 | 0.18 | 97 | 1006.6 |
| 20260506152037 | 56 | 194 | 2.6 | 7.8 | 0.07 | 0.17 | 0.17 | 97 | 1006.9 |
| 20260506151537 | 56 | 209 | 2.6 | 7.8 | 0.07 | 0.16 | 0.16 | 97 | 1006.7 |
| 20260506151042 | 0 | 147 | 221.6 | 0.0 | 0.00 | 0.00 | 0.00 | ||
| 20260506151037 | 56 | 223 | 3.5 | 5.2 | 0.07 | 0.15 | 0.15 | 97 | 1006.6 |
| 20260506150537 | 56 | 182 | 4.3 | 8.7 | 0.07 | 0.15 | 0.15 | 97 | 1006.6 |
| 20260506150036 | 56 | 212 | 3.5 | 13.0 | 0.07 | 0.14 | 0.14 | 97 | 1006.5 |
| 20260506145542 | 0 | 147 | 221.6 | 0.0 | 0.00 | 0.00 | 0.00 | ||
| 20260506145536 | 56 | 215 | 3.5 | 7.0 | 0.06 | 0.13 | 0.13 | 97 | 1006.4 |
| 20260506145036 | 56 | 250 | 3.5 | 8.7 | 0.07 | 0.13 | 0.13 | 97 | 1006.2 |
| 20260506144535 | 56 | 216 | 3.5 | 8.7 | 0.06 | 0.12 | 0.12 | 97 | 1006.4 |
| 20260506144040 | 0 | 147 | 221.6 | 0.0 | 0.00 | 0.00 | 0.00 | ||
| 20260506144035 | 56 | 234 | 2.6 | 7.8 | 0.07 | 0.12 | 0.12 | 97 | 1006.3 |
| 20260506143535 | 56 | 101 | 1.7 | 5.2 | 0.06 | 0.11 | 0.11 | 97 | 1006.3 |
| 20260506143035 | 56 | 175 | 2.6 | 3.5 | 0.06 | 0.10 | 0.10 | 97 | 1006.2 |
| 20260506142539 | 0 | 147 | 221.6 | 0.0 | 0.00 | 0.00 | 0.00 | ||
| 20260506142534 | 56 | 171 | 2.6 | 7.8 | 0.06 | 0.10 | 0.10 | 97 | 1006.4 |
| 20260506142035 | 56 | 184 | 2.6 | 7.8 | 0.07 | 0.10 | 0.10 | 96 | 1006.6 |
| 20260506141534 | 56 | 172 | 2.6 | 8.7 | 0.06 | 0.09 | 0.09 | 96 | 1006.7 |
| 20260506141039 | 0 | 147 | 221.6 | 0.0 | 0.00 | 0.00 | 0.00 | ||
| 20260506141034 | 56 | 213 | 2.6 | 6.1 | 0.06 | 0.08 | 0.08 | 96 | 1006.8 |
| 20260506140533 | 56 | 177 | 2.6 | 7.0 | 0.06 | 0.08 | 0.08 | 96 | 1006.8 |
| 20260506140033 | 56 | 169 | 2.6 | 4.3 | 0.06 | 0.07 | 0.07 | 96 | 1006.8 |
| 20260506135539 | 0 | 147 | 221.6 | 0.0 | 0.00 | 0.00 | 0.00 | ||
| 20260506135532 | 56 | 164 | 2.6 | 5.2 | 0.06 | 0.07 | 0.07 | 96 | 1006.7 |
| 20260506135032 | 56 | 154 | 2.6 | 4.3 | 0.05 | 0.06 | 0.06 | 96 | 1006.7 |
| 20260506134533 | 56 | 223 | 2.6 | 7.8 | 0.05 | 0.06 | 0.06 | 96 | 1006.7 |
| 20260506134036 | 0 | 147 | 221.6 | 0.0 | 0.00 | 0.00 | 0.00 | ||
| 20260506134032 | 56 | 159 | 2.6 | 6.1 | 0.05 | 0.05 | 0.05 | 96 | 1006.9 |
| 20260506133531 | 56 | 264 | 2.6 | 6.1 | 0.05 | 0.05 | 0.05 | 95 | 1007.0 |
| 20260506133031 | 56 | 215 | 2.6 | 6.1 | 0.04 | 0.04 | 0.04 | 95 | 1007.0 |
| 20260506132536 | 0 | 147 | 221.6 | 0.0 | 0.00 | 0.00 | 0.00 | ||
| 20260506132531 | 56 | 262 | 1.7 | 6.1 | 0.04 | 0.04 | 0.04 | 95 | 1006.9 |
| 20260506131530 | 57 | 141 | 2.6 | 6.1 | 0.03 | 0.03 | 0.03 | 95 | 1007.1 |
| 20260506131035 | 0 | 147 | 221.6 | 0.0 | 0.00 | 0.00 | 0.00 | ||
| 20260506131030 | 57 | 242 | 2.6 | 8.7 | 0.02 | 0.02 | 0.02 | 94 | 1007.1 |
| 20260506130530 | 57 | 197 | 2.6 | 7.8 | 0.02 | 0.02 | 0.02 | 94 | 1007.2 |
| 20260506130029 | 57 | 186 | 2.6 | 7.0 | 0.01 | 0.01 | 0.01 | 94 | 1007.2 |
| 20260506125534 | 0 | 147 | 221.6 | 0.0 | 0.00 | 0.00 | 0.00 | ||
| 20260506125529 | 57 | 203 | 2.6 | 4.3 | 0.01 | 0.01 | 0.01 | 93 | 1007.1 |
| 20260506125029 | 57 | 252 | 2.6 | 5.2 | 0.01 | 0.01 | 0.01 | 93 | 1007.1 |
| 20260506124528 | 57 | 198 | 2.6 | 7.0 | 0.01 | 0.01 | 0.01 | 92 | 1007.1 |
| 20260506124033 | 0 | 147 | 221.6 | 0.0 | 0.00 | 0.00 | 0.00 | ||
| 20260506124028 | 58 | 205 | 2.6 | 6.1 | 0.00 | 0.00 | 0.00 | 92 | 1007.1 |
| 20260506123528 | 58 | 236 | 2.6 | 5.2 | 0.00 | 0.00 | 0.00 | 91 | 1007.0 |
| 20260506123028 | 58 | 219 | 2.6 | 6.1 | 0.00 | 0.00 | 0.00 | 90 | 1007.0 |
| 20260506122532 | 0 | 147 | 221.6 | 0.0 | 0.00 | 0.00 | 0.00 | ||
| 20260506122527 | 58 | 229 | 2.6 | 6.1 | 0.00 | 0.00 | 0.00 | 90 | 1007.1 |
| 20260506122027 | 58 | 192 | 3.5 | 5.2 | 0.00 | 0.00 | 0.00 | 90 | 1007.0 |
| 20260506121527 | 58 | 186 | 2.6 | 8.7 | 0.00 | 0.00 | 0.00 | 90 | 1006.9 |
| 20260506121031 | 0 | 147 | 221.6 | 0.0 | 0.00 | 0.00 | 0.00 | ||
| 20260506121026 | 58 | 173 | 2.6 | 7.8 | 0.00 | 0.00 | 0.00 | 90 | 1006.9 |
| 20260506120526 | 58 | 205 | 1.7 | 5.2 | 0.00 | 0.00 | 0.00 | 90 | 1006.8 |
| 20260506120026 | 58 | 200 | 1.7 | 4.3 | 0.00 | 0.00 | 0.00 | 90 | 1007.0 |
| 20260506115531 | 0 | 147 | 221.6 | 0.0 | 0.00 | 0.00 | 0.00 | ||
| 20260506115525 | 58 | 182 | 2.6 | 5.2 | 0.00 | 0.00 | 0.00 | 90 | 1006.9 |
| 20260506115025 | 58 | 157 | 2.6 | 5.2 | 0.00 | 0.00 | 0.00 | 89 | 1006.8 |
| 20260506114525 | 58 | 212 | 2.6 | 9.6 | 0.00 | 0.00 | 0.00 | 89 | 1006.8 |
| 20260506114029 | 0 | 147 | 221.6 | 0.0 | 0.00 | 0.00 | 0.00 | ||
| 20260506114025 | 58 | 177 | 2.6 | 7.0 | 0.00 | 0.00 | 0.00 | 88 | 1006.9 |
| 20260506113525 | 58 | 232 | 2.6 | 4.3 | 0.00 | 0.00 | 0.00 | 87 | 1006.9 |
| 20260506113024 | 59 | 232 | 2.6 | 7.8 | 0.00 | 0.00 | 0.00 | 86 | 1007.0 |
| 20260506112529 | 0 | 147 | 221.6 | 0.0 | 0.00 | 0.00 | 0.00 | ||
| 20260506112524 | 59 | 189 | 2.6 | 7.8 | 0.00 | 0.00 | 0.00 | 85 | 1007.0 |
| 20260506112023 | 59 | 276 | 2.6 | 5.2 | 0.00 | 0.00 | 0.00 | 85 | 1007.0 |
| 20260506111523 | 59 | 258 | 2.6 | 7.8 | 0.00 | 0.00 | 0.00 | 83 | 1006.9 |
| 20260506111028 | 0 | 147 | 221.6 | 0.0 | 0.00 | 0.00 | 0.00 | ||
| 20260506111023 | 60 | 246 | 2.6 | 7.0 | 0.00 | 0.00 | 0.00 | 82 | 1006.9 |
| 20260506110523 | 60 | 249 | 2.6 | 6.1 | 0.00 | 0.00 | 0.00 | 81 | 1006.8 |
| 20260506110023 | 60 | 200 | 2.6 | 7.0 | 0.00 | 0.00 | 0.00 | 81 | 1006.6 |
| 20260506105528 | 0 | 147 | 221.6 | 0.0 | 0.00 | 0.00 | 0.00 | ||
| 20260506105522 | 60 | 240 | 2.6 | 6.1 | 0.00 | 0.00 | 0.00 | 80 | 1006.8 |
| 20260506105022 | 60 | 249 | 2.6 | 7.0 | 0.00 | 0.00 | 0.00 | 80 | 1006.7 |
| 20260506104521 | 60 | 234 | 2.6 | 6.1 | 0.00 | 0.00 | 0.00 | 80 | 1006.5 |
| 20260506104026 | 0 | 147 | 221.6 | 0.0 | 0.00 | 0.00 | 0.00 | ||
| 20260506104021 | 60 | 229 | 2.6 | 7.8 | 0.00 | 0.00 | 0.00 | 80 | 1006.2 |
| 20260506103521 | 60 | 226 | 2.6 | 6.1 | 0.00 | 0.00 | 0.00 | 80 | 1006.4 |
| 20260506103021 | 60 | 229 | 2.6 | 4.3 | 0.00 | 0.00 | 0.00 | 80 | 1006.3 |
| 20260506102525 | 0 | 147 | 221.6 | 0.0 | 0.00 | 0.00 | 0.00 | ||
| 20260506102520 | 60 | 139 | 3.5 | 7.0 | 0.00 | 0.00 | 0.00 | 79 | 1006.3 |
| 20260506102020 | 60 | 248 | 3.5 | 7.0 | 0.00 | 0.00 | 0.00 | 79 | 1006.2 |
| 20260506101520 | 59 | 229 | 2.6 | 7.8 | 0.00 | 0.00 | 0.00 | 79 | 1006.3 |
| 20260506101025 | 0 | 147 | 221.6 | 0.0 | 0.00 | 0.00 | 0.00 | ||
| 20260506101019 | 59 | 234 | 2.6 | 7.0 | 0.00 | 0.00 | 0.00 | 78 | 1006.2 |
| 20260506100519 | 60 | 198 | 1.7 | 4.3 | 0.00 | 0.00 | 0.00 | 78 | 1006.2 |
| 20260506100019 | 60 | 184 | 1.7 | 7.0 | 0.00 | 0.00 | 0.00 | 77 | 1006.2 |
| 20260506095524 | 0 | 147 | 221.6 | 0.0 | 0.00 | 0.00 | 0.00 | ||
| 20260506095519 | 60 | 254 | 2.6 | 6.1 | 0.00 | 0.00 | 0.00 | 77 | 1006.2 |
| 20260506095018 | 60 | 232 | 2.6 | 6.1 | 0.00 | 0.00 | 0.00 | 76 | 1006.5 |
| 20260506094518 | 60 | 197 | 2.6 | 6.1 | 0.00 | 0.00 | 0.00 | 76 | 1006.5 |
| 20260506094023 | 0 | 147 | 221.6 | 0.0 | 0.00 | 0.00 | 0.00 | ||
| 20260506094018 | 60 | 278 | 2.6 | 4.3 | 0.00 | 0.00 | 0.00 | 76 | 1006.6 |
| 20260506093517 | 60 | 236 | 2.6 | 4.3 | 0.00 | 0.00 | 0.00 | 76 | 1006.5 |
| 20260506093017 | 60 | 259 | 2.6 | 9.6 | 0.00 | 0.00 | 0.00 | 75 | 1006.5 |
| 20260506092522 | 0 | 147 | 221.6 | 0.0 | 0.00 | 0.00 | 0.00 | ||
| 20260506092517 | 60 | 267 | 2.6 | 5.2 | 0.00 | 0.00 | 0.00 | 75 | 1006.4 |
| 20260506092017 | 60 | 219 | 2.6 | 7.8 | 0.00 | 0.00 | 0.00 | 75 | 1006.5 |
| 20260506091516 | 60 | 225 | 1.7 | 5.2 | 0.00 | 0.00 | 0.00 | 75 | 1006.6 |
| 20260506091021 | 0 | 147 | 221.6 | 0.0 | 0.00 | 0.00 | 0.00 | ||
| 20260506091016 | 60 | 205 | 2.6 | 5.2 | 0.00 | 0.00 | 0.00 | 74 | 1006.6 |
| 20260506090516 | 60 | 150 | 2.6 | 5.2 | 0.00 | 0.00 | 0.00 | 74 | 1006.6 |
| 20260506090015 | 60 | 208 | 1.7 | 6.1 | 0.00 | 0.00 | 0.00 | 74 | 1006.7 |
| 20260506085520 | 0 | 147 | 221.6 | 0.0 | 0.00 | 0.00 | 0.00 | ||
| 20260506085515 | 61 | 235 | 1.7 | 4.3 | 0.00 | 0.00 | 0.00 | 73 | 1006.5 |
| 20260506085015 | 61 | 173 | 1.7 | 4.3 | 0.00 | 0.00 | 0.00 | 73 | 1006.6 |
| 20260506084515 | 61 | 216 | 1.7 | 5.2 | 0.00 | 0.00 | 0.00 | 73 | 1006.8 |
| 20260506084015 | 61 | 194 | 1.7 | 3.5 | 0.00 | 0.00 | 0.00 | 73 | 1006.7 |
| 20260506083514 | 61 | 235 | 1.7 | 5.2 | 0.00 | 0.00 | 0.00 | 72 | 1006.8 |
| 20260506083014 | 61 | 167 | 1.7 | 2.6 | 0.00 | 0.00 | 0.00 | 72 | 1006.8 |
| 20260506082513 | 61 | 222 | 2.6 | 5.2 | 0.00 | 0.02 | 0.00 | 72 | 1006.9 |
| 20260506082013 | 61 | 198 | 2.6 | 5.2 | 0.00 | 0.02 | 0.00 | 72 | 1006.8 |
| 20260506081513 | 61 | 200 | 2.6 | 5.2 | 0.00 | 0.02 | 0.00 | 71 | 1006.8 |
| 20260506081018 | 0 | 147 | 221.6 | 0.0 | 0.00 | 0.00 | 0.00 | ||
| 20260506081013 | 61 | 188 | 2.6 | 8.7 | 0.00 | 0.02 | 0.00 | 71 | 1006.8 |
| 20260506080512 | 61 | 175 | 3.5 | 7.8 | 0.00 | 0.02 | 0.00 | 71 | 1006.8 |
| 20260506073510 | 61 | 169 | 2.6 | 4.3 | 0.00 | 0.02 | 0.00 | 70 | 1006.9 |
| 20260506073010 | 61 | 215 | 2.6 | 7.0 | 0.00 | 0.02 | 0.00 | 70 | 1007.0 |
| 20260506072511 | 61 | 254 | 2.6 | 6.1 | 0.00 | 0.02 | 0.00 | 69 | 1007.0 |
| 20260506072010 | 61 | 222 | 2.6 | 6.1 | 0.00 | 0.02 | 0.00 | 69 | 1007.1 |
| 20260506071509 | 61 | 245 | 2.6 | 7.0 | 0.00 | 0.02 | 0.00 | 68 | 1007.1 |
| 20260506071014 | 0 | 147 | 221.6 | 0.0 | 0.00 | 0.00 | 0.00 | ||
| 20260506071009 | 61 | 165 | 2.6 | 6.1 | 0.00 | 0.02 | 0.00 | 68 | 1007.1 |
| 20260506070509 | 62 | 236 | 2.6 | 7.8 | 0.00 | 0.02 | 0.00 | 68 | 1007.1 |
| 20260506062511 | 0 | 147 | 221.6 | 0.0 | 0.00 | 0.00 | 0.00 | ||
| 20260506062506 | 62 | 251 | 2.6 | 7.8 | 0.00 | 0.02 | 0.00 | 65 | 1007.5 |
| 20260506062006 | 63 | 161 | 3.5 | 7.0 | 0.00 | 0.02 | 0.00 | 64 | 1007.5 |
| 20260506061506 | 63 | 220 | 3.5 | 9.6 | 0.00 | 0.02 | 0.00 | 64 | 1007.6 |
| 20260506061010 | 0 | 147 | 221.6 | 0.0 | 0.00 | 0.00 | 0.00 | ||
| 20260506061006 | 63 | 191 | 3.5 | 8.7 | 0.00 | 0.02 | 0.00 | 64 | 1007.6 |
| 20260506060505 | 63 | 213 | 3.5 | 12.2 | 0.00 | 0.02 | 0.00 | 64 | 1007.7 |
| 20260506051007 | 0 | 147 | 221.6 | 0.0 | 0.00 | 0.00 | 0.00 | ||
| 20260506051002 | 63 | 211 | 4.3 | 7.8 | 0.00 | 0.02 | 0.00 | 61 | 1008.0 |
| 20260506050502 | 63 | 214 | 3.5 | 10.4 | 0.00 | 0.02 | 0.00 | 61 | 1008.0 |
| 20260506045001 | 63 | 244 | 3.5 | 8.7 | 0.00 | 0.02 | 0.00 | 60 | 1008.1 |
| 20260506044501 | 63 | 200 | 3.5 | 9.6 | 0.00 | 0.02 | 0.00 | 60 | 1008.2 |
| 20260506044005 | 0 | 147 | 221.6 | 0.0 | 0.00 | 0.00 | 0.00 | ||
| 20260506044000 | 63 | 221 | 3.5 | 7.0 | 0.00 | 0.02 | 0.00 | 61 | 1008.2 |
| 20260506043500 | 63 | 236 | 2.6 | 8.7 | 0.00 | 0.02 | 0.00 | 61 | 1008.1 |
| 20260506043000 | 63 | 250 | 2.6 | 7.8 | 0.00 | 0.02 | 0.00 | 61 | 1008.1 |
| 20260506042504 | 0 | 147 | 221.6 | 0.0 | 0.00 | 0.00 | 0.00 | ||
| 20260506042459 | 63 | 221 | 2.6 | 7.0 | 0.00 | 0.02 | 0.00 | 61 | 1008.2 |
| 20260506041959 | 63 | 225 | 2.6 | 7.0 | 0.00 | 0.02 | 0.00 | 61 | 1008.1 |
| 20260506041459 | 63 | 219 | 1.7 | 4.3 | 0.00 | 0.02 | 0.00 | 61 | 1008.2 |
| 20260506040959 | 63 | 216 | 1.7 | 6.1 | 0.00 | 0.02 | 0.00 | 61 | 1008.2 |
| 20260506040458 | 63 | 207 | 2.6 | 4.3 | 0.00 | 0.02 | 0.02 | 60 | 1008.3 |
| 20260506035958 | 64 | 215 | 2.6 | 7.0 | 0.00 | 0.02 | 0.02 | 59 | 1008.3 |
| 20260506035502 | 0 | 147 | 221.6 | 0.0 | 0.00 | 0.00 | 0.00 | ||
| 20260506035458 | 63 | 251 | 2.6 | 7.8 | 0.00 | 0.02 | 0.02 | 59 | 1008.2 |
| 20260506034957 | 64 | 204 | 2.6 | 7.0 | 0.00 | 0.02 | 0.02 | 59 | 1008.2 |
| 20260506034457 | 64 | 203 | 2.6 | 8.7 | 0.00 | 0.02 | 0.02 | 58 | 1008.2 |
| 20260506034002 | 0 | 147 | 221.6 | 0.0 | 0.00 | 0.00 | 0.00 | ||
| 20260506033957 | 64 | 176 | 2.6 | 6.1 | 0.00 | 0.02 | 0.02 | 58 | 1008.2 |
| 20260506033456 | 64 | 225 | 2.6 | 7.0 | 0.00 | 0.02 | 0.02 | 58 | 1008.2 |
| 20260506032956 | 64 | 238 | 2.6 | 7.0 | 0.00 | 0.02 | 0.02 | 58 | 1008.1 |
| 20260506032456 | 64 | 157 | 2.6 | 7.0 | 0.00 | 0.02 | 0.02 | 58 | 1008.1 |
| 20260506031956 | 64 | 238 | 2.6 | 7.0 | 0.00 | 0.02 | 0.02 | 57 | 1008.2 |
| 20260506031455 | 64 | 271 | 2.6 | 6.1 | 0.00 | 0.02 | 0.02 | 58 | 1008.1 |
| 20260506031000 | 0 | 147 | 221.6 | 0.0 | 0.00 | 0.00 | 0.00 | ||
| 20260506030955 | 64 | 277 | 1.7 | 3.5 | 0.00 | 0.02 | 0.02 | 58 | 1008.2 |
| 20260506030455 | 64 | 218 | 1.7 | 5.2 | 0.00 | 0.02 | 0.02 | 58 | 1008.1 |
| 20260506025955 | 64 | 188 | 2.6 | 5.2 | 0.00 | 0.02 | 0.02 | 58 | 1008.1 |
| 20260506025459 | 0 | 147 | 221.6 | 0.0 | 0.00 | 0.00 | 0.00 | ||
| 20260506025454 | 64 | 227 | 2.6 | 6.1 | 0.00 | 0.02 | 0.02 | 57 | 1008.2 |
| 20260506024954 | 64 | 178 | 2.6 | 4.3 | 0.00 | 0.02 | 0.02 | 57 | 1008.1 |
| 20260506024454 | 64 | 199 | 1.7 | 6.1 | 0.00 | 0.02 | 0.02 | 57 | 1008.2 |
| 20260506023958 | 0 | 147 | 221.6 | 0.0 | 0.00 | 0.00 | 0.00 | ||
| 20260506023953 | 64 | 174 | 1.7 | 6.1 | 0.00 | 0.02 | 0.02 | 57 | 1008.3 |
| 20260506023453 | 65 | 180 | 1.7 | 5.2 | 0.00 | 0.02 | 0.02 | 57 | 1008.3 |
| 20260506022953 | 65 | 181 | 1.7 | 4.3 | 0.00 | 0.02 | 0.02 | 56 | 1008.3 |
| 20260506022457 | 0 | 147 | 221.6 | 0.0 | 0.00 | 0.00 | 0.00 | ||
| 20260506022452 | 65 | 167 | 1.7 | 3.5 | 0.00 | 0.02 | 0.02 | 56 | 1008.3 |
| 20260506021952 | 65 | 195 | 1.7 | 6.1 | 0.00 | 0.02 | 0.02 | 55 | 1008.3 |
| 20260506021452 | 66 | 156 | 0.9 | 2.6 | 0.00 | 0.02 | 0.02 | 54 | 1008.4 |
| 20260506020956 | 0 | 147 | 221.6 | 0.0 | 0.00 | 0.00 | 0.00 | ||
| 20260506020952 | 66 | 241 | 1.7 | 5.2 | 0.00 | 0.02 | 0.02 | 53 | 1008.3 |
| 20260506020451 | 67 | 196 | 1.7 | 3.5 | 0.00 | 0.02 | 0.02 | 53 | 1008.3 |
| 20260506015951 | 67 | 204 | 2.6 | 7.0 | 0.00 | 0.02 | 0.02 | 52 | 1008.2 |
| 20260506015455 | 0 | 147 | 221.6 | 0.0 | 0.00 | 0.00 | 0.00 | ||
| 20260506015451 | 67 | 166 | 2.6 | 5.2 | 0.00 | 0.02 | 0.02 | 51 | 1008.2 |
| 20260506014950 | 68 | 173 | 3.5 | 7.0 | 0.00 | 0.02 | 0.02 | 51 | 1008.2 |
| 20260506014450 | 68 | 224 | 2.6 | 7.8 | 0.00 | 0.02 | 0.02 | 51 | 1008.1 |
| 20260506013950 | 68 | 163 | 3.5 | 8.7 | 0.00 | 0.02 | 0.02 | 51 | 1008.1 |
| 20260506013450 | 68 | 237 | 3.5 | 9.6 | 0.00 | 0.02 | 0.02 | 51 | 1008.1 |
| 20260506012949 | 68 | 241 | 3.5 | 5.2 | 0.00 | 0.02 | 0.02 | 52 | 1008.0 |
| 20260506012454 | 0 | 147 | 221.6 | 0.0 | 0.00 | 0.00 | 0.00 | ||
| 20260506012449 | 68 | 202 | 2.6 | 7.8 | 0.00 | 0.02 | 0.02 | 52 | 1008.0 |
| 20260506011949 | 68 | 202 | 2.6 | 5.2 | 0.00 | 0.02 | 0.02 | 52 | 1007.9 |
| 20260506011449 | 68 | 224 | 2.6 | 5.2 | 0.00 | 0.02 | 0.02 | 52 | 1007.9 |
| 20260506010954 | 0 | 147 | 221.6 | 0.0 | 0.00 | 0.00 | 0.00 | ||
| 20260506010948 | 68 | 243 | 2.6 | 7.8 | 0.00 | 0.02 | 0.02 | 51 | 1007.8 |
| 20260506010448 | 68 | 199 | 2.6 | 6.1 | 0.00 | 0.02 | 0.02 | 51 | 1007.8 |
| 20260506005947 | 68 | 213 | 2.6 | 6.1 | 0.00 | 0.02 | 0.02 | 51 | 1007.8 |
| 20260506005453 | 0 | 147 | 221.6 | 0.0 | 0.00 | 0.00 | 0.00 | ||
| 20260506005447 | 68 | 221 | 2.6 | 8.7 | 0.00 | 0.02 | 0.02 | 51 | 1007.6 |
| 20260506004947 | 68 | 212 | 2.6 | 8.7 | 0.00 | 0.02 | 0.02 | 51 | 1007.5 |
| 20260506004447 | 68 | 211 | 2.6 | 7.0 | 0.00 | 0.02 | 0.02 | 51 | 1007.5 |
| 20260506003951 | 0 | 147 | 221.6 | 0.0 | 0.00 | 0.00 | 0.00 | ||
| 20260506003946 | 69 | 261 | 2.6 | 7.0 | 0.00 | 0.02 | 0.02 | 51 | 1007.5 |
| 20260506003446 | 69 | 273 | 2.6 | 6.1 | 0.00 | 0.02 | 0.02 | 50 | 1007.6 |
| 20260506002946 | 69 | 176 | 2.6 | 5.2 | 0.00 | 0.02 | 0.02 | 50 | 1007.6 |
| 20260506002445 | 69 | 213 | 3.5 | 11.3 | 0.00 | 0.02 | 0.02 | 49 | 1007.5 |
| 20260506001945 | 69 | 203 | 2.6 | 7.0 | 0.00 | 0.02 | 0.02 | 49 | 1007.5 |
| 20260506001445 | 70 | 188 | 2.6 | 4.3 | 0.00 | 0.02 | 0.02 | 49 | 1007.4 |
| 20260506000945 | 70 | 229 | 2.6 | 7.0 | 0.00 | 0.02 | 0.02 | 48 | 1007.4 |